{"data":{"norad_id":67792,"intl_designator":"2026-030AE","name":"KUIPER-00274","alt_names":[],"object_type":"PAYLOAD","status":"ACTIVE","operator":null,"country":"US","launch_date":"2026-02-12","launch_site_code":"FRGUI","launch_vehicle":null,"mission":null,"orbit_class":"UNKNOWN","rcs_meters":null,"size_class":null,"mass_kg":null,"dimensions":null,"purposes":[],"wikipedia_slug":null,"has_3d_model":false,"image_url":null,"decayed_at":null,"tle_current":{"epoch":"2026-05-25T05:01:56.913600Z","epoch_age_seconds":67050,"freshness":"FRESH","line1":"1 67792U 26030AE  26145.20968650  .00001706  00000+0  27421-3 0  9998","line2":"2 67792  51.8998 224.4134 0004035   5.3061 354.7942 14.76348633 16657","mean_motion":14.76348633,"eccentricity":0.0004035,"inclination_deg":51.8998,"raan_deg":224.4134,"arg_perigee_deg":5.3061,"mean_anomaly_deg":354.7942,"bstar":0.00027421,"rev_number":1665,"period_min":97.537937030081,"perigee_km":638.04130329641,"apogee_km":643.70564474895,"semimajor_km":7019.0104740227,"source":"CELESTRAK","updated_at":"2026-05-25T13:38:07.263676Z"}}}